User: anonymous   Login
Location: Strohbehn Observatory
(42.4649°N, 93.8239°W)
Time: 23:12:57
(UTC-05:00)
Language:

SL-16 R/B - Orbit

View from above orbital plane
View from above orbital plane
View from above satellite
View from above satellite

Ground track
Ground track

The orbit data is extracted from the following two-line orbital elements,

1 31793U 07029B   16120.78539852  .00000293  00000-0  17793-3 0  9992
2 31793  70.9753 177.5012 0001777 276.5333 201.2540 14.14359606456266
Epoch (UTC): 29 April 2016 18:50:58
Eccentricity: 0.0001777
inclination: 70.9753°
perigee height: 843 km
apogee height: 846 km
right ascension of ascending node: 177.5012°
argument of perigee: 276.5333°
revolutions per day: 14.14359606
mean anomaly at epoch: 201.2540°
orbit number at epoch: 45626

The dashed part of the orbit path shows where the satellite is in the earth's shadow,  

DLR